,,,PA_Meas_PMT16A,,PR_Meas_QMR101_102,,RH_Meas_QMH101,,SR_Meas_QMS101,,TA_Meas_QMH101,,GenWind,,GenWind,
date,time,status,PA,status,PR,status,RH,status,SR,status,TA,status,DirAvg,status,SpdAvg,
2010-01-23, 00:00:04,VALID,1012.79,VALID,0,VALID,92.5309,VALID,0,VALID,23.9278,VALID,143,VALID,0.357812,
2010-01-23, 00:01:04,VALID,1012.75,VALID,0,VALID,92.5461,VALID,0,VALID,23.9278,VALID,142,VALID,0.407813,
2010-01-23, 00:02:04,VALID,1012.74,VALID,0,VALID,92.5156,VALID,0.105969,VALID,23.9473,VALID,144,VALID,0.570703,
2010-01-23, 00:03:04,VALID,1012.73,VALID,0,VALID,92.508,VALID,0,VALID,23.9278,VALID,144,VALID,0.428906,
2010-01-23, 00:04:04,VALID,1012.73,VALID,0,VALID,92.5004,VALID,0,VALID,23.9278,VALID,144,VALID,0.210156,
2010-01-23, 00:05:04,VALID,1012.74,VALID,0,VALID,92.5156,VALID,0,VALID,23.9278,VALID,144,VALID,0.333984,
2010-01-23, 00:06:04,VALID,1012.72,VALID,0,VALID,92.5538,VALID,0,VALID,23.9065,VALID,144,VALID,0.487109,
2010-01-23, 00:07:04,VALID,1012.72,VALID,0,VALID,92.5233,VALID,0,VALID,23.9084,VALID,144,VALID,0.439844,
2010-01-23, 00:08:04,VALID,1012.74,VALID,0,VALID,92.5233,VALID,0,VALID,23.9278,VALID,144,VALID,0.358203,
2010-01-23, 00:09:04,VALID,1012.71,VALID,0,VALID,92.5309,VALID,0,VALID,23.9278,VALID,144,VALID,0.382422,
2010-01-23, 00:10:04,VALID,1012.74,VALID,0,VALID,92.569,VALID,0,VALID,23.9278,VALID,144,VALID,0.434766,
2010-01-23, 00:11:04,VALID,1012.72,VALID,0,VALID,92.5766,VALID,0,VALID,23.8871,VALID,144,VALID,0.733594,
2010-01-23, 00:12:04,VALID,1012.73,VALID,0,VALID,92.569,VALID,0,VALID,23.8676,VALID,145,VALID,0.754297,
2010-01-23, 00:13:04,VALID,1012.75,VALID,0,VALID,92.5919,VALID,0,VALID,23.9084,VALID,132,VALID,0.746094,
2010-01-23, 00:14:04,VALID,1012.76,VALID,0,VALID,92.6453,VALID,0,VALID,23.9084,VALID,120,VALID,0.836719,
2010-01-23, 00:15:04,VALID,1012.77,VALID,0,VALID,92.8283,VALID,0,VALID,23.8871,VALID,107,VALID,1.08242,
2010-01-23, 00:16:04,VALID,1012.77,VALID,0,VALID,92.8588,VALID,0,VALID,23.9065,VALID,98,VALID,1.21641,
2010-01-23, 00:17:04,VALID,1012.78,VALID,0,VALID,92.8359,VALID,0,VALID,23.9084,VALID,118,VALID,1.36563,
2010-01-23, 00:18:04,VALID,1012.78,VALID,0,VALID,92.8512,VALID,0.105969,VALID,23.8871,VALID,113,VALID,0.779688,
2010-01-23, 00:19:04,VALID,1012.72,VALID,0,VALID,92.8436,VALID,0,VALID,23.9084,VALID,118,VALID,0.941406,
2010-01-23, 00:20:04,VALID,1012.72,VALID,0,VALID,92.8283,VALID,0,VALID,23.9278,VALID,91,VALID,0.899219,
2010-01-23, 00:21:04,VALID,1012.68,VALID,0,VALID,92.8512,VALID,0,VALID,23.9278,VALID,107,VALID,0.727344,
2010-01-23, 00:22:04,VALID,1012.67,VALID,0,VALID,92.8283,VALID,0,VALID,23.9084,VALID,98,VALID,0.978906,
2010-01-23, 00:23:04,VALID,1012.7,VALID,0,VALID,92.8283,VALID,0,VALID,23.9084,VALID,99,VALID,1.15586,
2010-01-23, 00:24:04,VALID,1012.69,VALID,0,VALID,92.8054,VALID,0,VALID,23.9065,VALID,113,VALID,0.758203,
2010-01-23, 00:25:04,VALID,1012.71,VALID,0,VALID,92.8512,VALID,0,VALID,23.9278,VALID,112,VALID,0.893359,
2010-01-23, 00:26:04,VALID,1012.76,VALID,0,VALID,92.8512,VALID,0,VALID,23.9065,VALID,87,VALID,1.02891,
2010-01-23, 00:27:04,VALID,1012.81,VALID,0,VALID,92.8664,VALID,0,VALID,23.9278,VALID,74,VALID,1.34102,
2010-01-23, 00:28:04,VALID,1012.76,VALID,0,VALID,92.9046,VALID,0,VALID,23.9065,VALID,87,VALID,1.57734,
2010-01-23, 00:29:04,VALID,1012.78,VALID,0,VALID,92.8588,VALID,0.105969,VALID,23.8871,VALID,87,VALID,1.01328,
2010-01-23, 00:30:04,VALID,1012.77,VALID,0,VALID,92.8664,VALID,0.105969,VALID,23.9084,VALID,59,VALID,1.06445,
2010-01-23, 00:31:04,VALID,1012.72,VALID,0,VALID,92.8512,VALID,0,VALID,23.8889,VALID,83,VALID,1.73477,
2010-01-23, 00:32:04,VALID,1012.7,VALID,0,VALID,92.8588,VALID,0,VALID,23.8676,VALID,84,VALID,1.40977,
2010-01-23, 00:33:04,VALID,1012.72,VALID,0,VALID,92.8664,VALID,0,VALID,23.8694,VALID,91,VALID,0.853516,
2010-01-23, 00:34:04,VALID,1012.73,VALID,0,VALID,92.8588,VALID,0,VALID,23.8481,VALID,80,VALID,1.32969,
2010-01-23, 00:35:04,VALID,1012.72,VALID,0,VALID,92.8207,VALID,0,VALID,23.8889,VALID,94,VALID,2.21797,
2010-01-23, 00:36:04,VALID,1012.72,VALID,0,VALID,92.7902,VALID,0,VALID,23.9278,VALID,76,VALID,1.1832,
2010-01-23, 00:37:04,VALID,1012.74,VALID,0,VALID,92.7673,VALID,0,VALID,23.9065,VALID,89,VALID,2.02187,
2010-01-23, 00:38:04,VALID,1012.76,VALID,0,VALID,92.6834,VALID,0,VALID,23.926,VALID,83,VALID,2.48125,
2010-01-23, 00:39:04,VALID,1012.71,VALID,0,VALID,92.5614,VALID,0.105969,VALID,23.9473,VALID,91,VALID,1.76289,
2010-01-23, 00:40:04,VALID,1012.68,VALID,0,VALID,92.4623,VALID,0.105969,VALID,23.926,VALID,85,VALID,1.35117,
2010-01-23, 00:41:04,VALID,1012.68,VALID,0,VALID,92.4318,VALID,0.105969,VALID,23.926,VALID,72,VALID,0.8375,
2010-01-23, 00:42:04,VALID,1012.61,VALID,0,VALID,92.4089,VALID,0,VALID,23.9278,VALID,80,VALID,0.223047,
2010-01-23, 00:43:04,VALID,1012.57,VALID,0,VALID,92.4318,VALID,0.105969,VALID,23.9278,VALID,41,VALID,0,
2010-01-23, 00:44:04,VALID,1012.56,VALID,0,VALID,92.447,VALID,0,VALID,23.9278,VALID,41,VALID,0,
2010-01-23, 00:45:04,VALID,1012.53,VALID,0,VALID,92.447,VALID,0,VALID,23.9278,VALID,356,VALID,0.0203125,
2010-01-23, 00:46:04,VALID,1012.53,VALID,0,VALID,92.4165,VALID,0,VALID,23.8889,VALID,354,VALID,0.271094,
2010-01-23, 00:47:04,VALID,1012.53,VALID,0,VALID,92.3631,VALID,0,VALID,23.9084,VALID,7,VALID,0.0523437,
2010-01-23, 00:48:04,VALID,1012.51,VALID,0,VALID,92.3631,VALID,0.105969,VALID,23.9084,VALID,6,VALID,0,
2010-01-23, 00:49:04,VALID,1012.5,VALID,0,VALID,92.3936,VALID,0.105969,VALID,23.8871,VALID,6,VALID,0,
2010-01-23, 00:50:04,VALID,1012.51,VALID,0,VALID,92.386,VALID,0,VALID,23.9084,VALID,6,VALID,0,
2010-01-23, 00:51:04,VALID,1012.53,VALID,0,VALID,92.3479,VALID,0,VALID,23.8871,VALID,53,VALID,0.565625,
2010-01-23, 00:52:04,VALID,1012.54,VALID,0,VALID,92.3631,VALID,0.105969,VALID,23.8871,VALID,62,VALID,0.309766,
2010-01-23, 00:53:04,VALID,1012.53,VALID,0,VALID,92.386,VALID,0,VALID,23.9084,VALID,77,VALID,0.179688,
2010-01-23, 00:54:04,VALID,1012.49,VALID,0,VALID,92.447,VALID,0,VALID,23.9084,VALID,105,VALID,0.324609,
2010-01-23, 00:55:04,VALID,1012.51,VALID,0,VALID,92.5309,VALID,0,VALID,23.8871,VALID,105,VALID,0.374609,
2010-01-23, 00:56:04,VALID,1012.53,VALID,0,VALID,92.63,VALID,0,VALID,23.8871,VALID,106,VALID,0.439063,
2010-01-23, 00:57:04,VALID,1012.48,VALID,0,VALID,92.6224,VALID,0,VALID,23.9278,VALID,129,VALID,0.839844,
2010-01-23, 00:58:04,VALID,1012.47,VALID,0,VALID,92.6605,VALID,0.105969,VALID,23.9084,VALID,134,VALID,0.557422,
2010-01-23, 00:59:04,VALID,1012.45,VALID,0,VALID,92.6376,VALID,0,VALID,23.9084,VALID,134,VALID,0.205469,
2010-01-23, 01:00:04,VALID,1012.4,VALID,0,VALID,92.6071,VALID,0.105969,VALID,23.8871,VALID,165,VALID,0.250781,
2010-01-23, 01:01:04,VALID,1012.4,VALID,0,VALID,92.6376,VALID,0,VALID,23.9278,VALID,165,VALID,0,
2010-01-23, 01:02:04,VALID,1012.36,VALID,0,VALID,92.6376,VALID,0,VALID,23.9278,VALID,165,VALID,0.191016,
2010-01-23, 01:03:04,VALID,1012.33,VALID,0,VALID,92.6224,VALID,0,VALID,23.9278,VALID,165,VALID,0,
2010-01-23, 01:04:04,VALID,1012.29,VALID,0,VALID,92.6376,VALID,0,VALID,23.9278,VALID,165,VALID,0,
2010-01-23, 01:05:04,VALID,1012.25,VALID,0,VALID,92.6376,VALID,0.105969,VALID,23.926,VALID,165,VALID,0,
2010-01-23, 01:06:04,VALID,1012.22,VALID,0,VALID,92.6453,VALID,0,VALID,23.9278,VALID,249,VALID,0,
2010-01-23, 01:07:04,VALID,1012.18,VALID,0,VALID,92.6453,VALID,0.105969,VALID,23.9278,VALID,288,VALID,0,
2010-01-23, 01:08:04,VALID,1012.19,VALID,0,VALID,92.5995,VALID,0,VALID,23.9065,VALID,288,VALID,0,
2010-01-23, 01:09:04,VALID,1012.19,VALID,0,VALID,92.5843,VALID,0.105969,VALID,23.9084,VALID,288,VALID,0,
2010-01-23, 01:10:04,VALID,1012.15,VALID,0,VALID,92.6224,VALID,0,VALID,23.9278,VALID,288,VALID,0,
2010-01-23, 01:11:04,VALID,1012.17,VALID,0,VALID,92.6682,VALID,0,VALID,23.9473,VALID,288,VALID,0,
2010-01-23, 01:12:04,VALID,1012.15,VALID,0,VALID,92.6987,VALID,0,VALID,23.926,VALID,288,VALID,0,
2010-01-23, 01:13:04,VALID,1012.14,VALID,0,VALID,92.7063,VALID,0,VALID,23.9473,VALID,288,VALID,0,
2010-01-23, 01:14:04,VALID,1012.1,VALID,0,VALID,92.6682,VALID,0,VALID,23.9473,VALID,288,VALID,0,
2010-01-23, 01:15:04,VALID,1012.09,VALID,0,VALID,92.6834,VALID,0.105969,VALID,23.9455,VALID,253,VALID,0,
2010-01-23, 01:16:04,VALID,1012.07,VALID,0,VALID,92.6605,VALID,0,VALID,23.9668,VALID,227,VALID,0,
2010-01-23, 01:17:04,VALID,1012.07,VALID,0,VALID,92.6605,VALID,0,VALID,23.9473,VALID,226,VALID,0,
2010-01-23, 01:18:04,VALID,1012.02,VALID,0,VALID,92.6376,VALID,0,VALID,23.9278,VALID,226,VALID,0,
2010-01-23, 01:19:04,VALID,1012.03,VALID,0,VALID,92.6148,VALID,0,VALID,23.926,VALID,226,VALID,0,
2010-01-23, 01:20:04,VALID,1011.99,VALID,0,VALID,92.5995,VALID,0,VALID,23.9278,VALID,226,VALID,0,
2010-01-23, 01:21:04,VALID,1012.02,VALID,0,VALID,92.5995,VALID,0,VALID,23.9278,VALID,226,VALID,0,
2010-01-23, 01:22:04,VALID,1011.99,VALID,0,VALID,92.6453,VALID,0,VALID,23.9473,VALID,226,VALID,0,
2010-01-23, 01:23:04,VALID,1011.99,VALID,0,VALID,92.691,VALID,0,VALID,23.9473,VALID,226,VALID,0,
2010-01-23, 01:24:04,VALID,1011.98,VALID,0,VALID,92.7292,VALID,0,VALID,23.9473,VALID,226,VALID,0,
2010-01-23, 01:25:04,VALID,1011.99,VALID,0,VALID,92.7292,VALID,0,VALID,23.9065,VALID,226,VALID,0,
2010-01-23, 01:26:04,VALID,1011.98,VALID,0,VALID,92.7368,VALID,0,VALID,23.9084,VALID,226,VALID,0,
2010-01-23, 01:27:04,VALID,1011.95,VALID,0,VALID,92.752,VALID,0,VALID,23.9084,VALID,226,VALID,0,
2010-01-23, 01:28:04,VALID,1011.95,VALID,0,VALID,92.752,VALID,0,VALID,23.8694,VALID,226,VALID,0,
2010-01-23, 01:29:04,VALID,1011.92,VALID,0,VALID,92.7292,VALID,0,VALID,23.8889,VALID,226,VALID,0,
2010-01-23, 01:30:04,VALID,1011.89,VALID,0,VALID,92.7902,VALID,0.105969,VALID,23.9084,VALID,226,VALID,0,
2010-01-23, 01:31:04,VALID,1011.89,VALID,0,VALID,92.8283,VALID,0,VALID,23.9278,VALID,226,VALID,0,
2010-01-23, 01:32:04,VALID,1011.87,VALID,0,VALID,92.7825,VALID,0,VALID,23.9065,VALID,218,VALID,0,
2010-01-23, 01:33:04,VALID,1011.85,VALID,0,VALID,92.7368,VALID,0,VALID,23.9278,VALID,202,VALID,0,
2010-01-23, 01:34:04,VALID,1011.87,VALID,0,VALID,92.7292,VALID,0,VALID,23.8871,VALID,200,VALID,0,
2010-01-23, 01:35:04,VALID,1011.85,VALID,0,VALID,92.6834,VALID,0,VALID,23.8889,VALID,200,VALID,0,
2010-01-23, 01:36:04,VALID,1011.81,VALID,0,VALID,92.6834,VALID,0,VALID,23.8889,VALID,223,VALID,0,
2010-01-23, 01:37:04,VALID,1011.84,VALID,0,VALID,92.6834,VALID,0.105969,VALID,23.8889,VALID,195,VALID,0,
2010-01-23, 01:38:04,VALID,1011.78,VALID,0,VALID,92.6605,VALID,0,VALID,23.8889,VALID,196,VALID,0,
2010-01-23, 01:39:04,VALID,1011.76,VALID,0,VALID,92.6376,VALID,0.105969,VALID,23.8694,VALID,193,VALID,0,
2010-01-23, 01:40:04,VALID,1011.75,VALID,0,VALID,92.6453,VALID,0,VALID,23.8694,VALID,210,VALID,0,
2010-01-23, 01:41:04,VALID,1011.75,VALID,0,VALID,92.6224,VALID,0,VALID,23.8676,VALID,210,VALID,0,
2010-01-23, 01:42:04,VALID,1011.74,VALID,0,VALID,92.5995,VALID,0,VALID,23.8889,VALID,210,VALID,0,
2010-01-23, 01:43:04,VALID,1011.72,VALID,0,VALID,92.6071,VALID,0,VALID,23.8871,VALID,210,VALID,0,
2010-01-23, 01:44:04,VALID,1011.72,VALID,0,VALID,92.6148,VALID,0,VALID,23.9084,VALID,210,VALID,0,
2010-01-23, 01:45:04,VALID,1011.68,VALID,0,VALID,92.6224,VALID,0,VALID,23.8871,VALID,194,VALID,0,
2010-01-23, 01:46:04,VALID,1011.68,VALID,0,VALID,92.6071,VALID,0,VALID,23.9084,VALID,194,VALID,0,
2010-01-23, 01:47:04,VALID,1011.68,VALID,0,VALID,92.6224,VALID,0,VALID,23.9278,VALID,212,VALID,0,
2010-01-23, 01:48:05,VALID,1011.68,VALID,0,VALID,92.6453,VALID,0,VALID,23.9278,VALID,215,VALID,0,
2010-01-23, 01:49:05,VALID,1011.66,VALID,0,VALID,92.6529,VALID,0,VALID,23.9278,VALID,215,VALID,0,
2010-01-23, 01:50:05,VALID,1011.67,VALID,0,VALID,92.5995,VALID,0,VALID,23.9278,VALID,215,VALID,0,
2010-01-23, 01:51:05,VALID,1011.69,VALID,0,VALID,92.5766,VALID,0,VALID,23.9278,VALID,172,VALID,0,
2010-01-23, 01:52:05,VALID,1011.67,VALID,0,VALID,92.5766,VALID,0,VALID,23.8871,VALID,115,VALID,0,
2010-01-23, 01:53:05,VALID,1011.66,VALID,0,VALID,92.569,VALID,0,VALID,23.8889,VALID,111,VALID,0,
2010-01-23, 01:54:05,VALID,1011.65,VALID,0,VALID,92.5919,VALID,0.105969,VALID,23.8871,VALID,111,VALID,0,
2010-01-23, 01:55:05,VALID,1011.65,VALID,0,VALID,92.5995,VALID,0,VALID,23.8871,VALID,111,VALID,0,
2010-01-23, 01:56:05,VALID,1011.65,VALID,0,VALID,92.6453,VALID,0.105969,VALID,23.9278,VALID,118,VALID,0,
2010-01-23, 01:57:05,VALID,1011.62,VALID,0,VALID,92.6529,VALID,0,VALID,23.9278,VALID,121,VALID,0.835938,
2010-01-23, 01:58:05,VALID,1011.59,VALID,0,VALID,92.6453,VALID,0,VALID,23.9278,VALID,121,VALID,0.903906,
2010-01-23, 01:59:05,VALID,1011.59,VALID,0,VALID,92.6224,VALID,0,VALID,23.9278,VALID,124,VALID,0.795703,
2010-01-23, 02:00:05,VALID,1011.61,VALID,0,VALID,92.7597,VALID,0,VALID,23.9278,VALID,108,VALID,0.881641,
2010-01-23, 02:01:05,VALID,1011.62,VALID,0,VALID,92.7063,VALID,0.105969,VALID,23.9278,VALID,100,VALID,0.849219,
2010-01-23, 02:02:05,VALID,1011.67,VALID,0,VALID,92.7139,VALID,0.105969,VALID,23.9065,VALID,95,VALID,1.73477,
2010-01-23, 02:03:05,VALID,1011.73,VALID,0,VALID,92.691,VALID,0,VALID,23.9278,VALID,94,VALID,2.00781,
2010-01-23, 02:04:05,VALID,1011.73,VALID,0,VALID,92.6682,VALID,0,VALID,23.8694,VALID,93,VALID,2.14023,
2010-01-23, 02:05:05,VALID,1011.74,VALID,0,VALID,92.6987,VALID,0,VALID,23.8109,VALID,89,VALID,2.02422,
2010-01-23, 02:06:05,VALID,1011.71,VALID,0,VALID,92.7368,VALID,0,VALID,23.7525,VALID,88,VALID,1.01016,
2010-01-23, 02:07:05,VALID,1011.63,VALID,0,VALID,92.8207,VALID,0,VALID,23.733,VALID,84,VALID,0.776172,
2010-01-23, 02:08:05,VALID,1011.55,VALID,0,VALID,92.8969,VALID,0,VALID,23.6922,VALID,88,VALID,0.204688,
2010-01-23, 02:09:05,VALID,1011.51,VALID,0,VALID,92.9808,VALID,0,VALID,23.6727,VALID,88,VALID,0.0335938,
2010-01-23, 02:10:05,VALID,1011.5,VALID,0,VALID,93.0494,VALID,0,VALID,23.7135,VALID,176,VALID,0.189063,
2010-01-23, 02:11:05,VALID,1011.54,VALID,0,VALID,93.1105,VALID,0,VALID,23.7135,VALID,124,VALID,0.860156,
2010-01-23, 02:12:05,VALID,1011.59,VALID,0,VALID,93.1333,VALID,0,VALID,23.6922,VALID,101,VALID,1.88555,
2010-01-23, 02:13:05,VALID,1011.65,VALID,0,VALID,93.141,VALID,0,VALID,23.7135,VALID,89,VALID,1.98398,
2010-01-23, 02:14:05,VALID,1011.7,VALID,0,VALID,93.1867,VALID,0,VALID,23.694,VALID,77,VALID,2.69531,
2010-01-23, 02:15:05,VALID,1011.67,VALID,0,VALID,93.202,VALID,0,VALID,23.6745,VALID,95,VALID,2.04336,
2010-01-23, 02:16:05,VALID,1011.67,VALID,0,VALID,93.2096,VALID,0,VALID,23.655,VALID,101,VALID,1.85391,
2010-01-23, 02:17:05,VALID,1011.64,VALID,0,VALID,93.1867,VALID,0,VALID,23.6356,VALID,108,VALID,0.977734,
2010-01-23, 02:18:05,VALID,1011.57,VALID,0,VALID,93.1943,VALID,0,VALID,23.6161,VALID,126,VALID,0.473047,
2010-01-23, 02:19:05,VALID,1011.57,VALID,0,VALID,93.202,VALID,0,VALID,23.6161,VALID,102,VALID,0.498437,
2010-01-23, 02:20:05,VALID,1011.62,VALID,0,VALID,93.202,VALID,0,VALID,23.6161,VALID,91,VALID,1.40781,
2010-01-23, 02:21:05,VALID,1011.64,VALID,0,VALID,93.2096,VALID,0,VALID,23.6161,VALID,72,VALID,1.52422,
2010-01-23, 02:22:05,VALID,1011.64,VALID,0,VALID,93.2096,VALID,0,VALID,23.5771,VALID,79,VALID,1.25078,
2010-01-23, 02:23:05,VALID,1011.61,VALID,0,VALID,93.2096,VALID,0,VALID,23.5771,VALID,98,VALID,0.724609,
2010-01-23, 02:24:05,VALID,1011.56,VALID,0,VALID,93.2248,VALID,0,VALID,23.5576,VALID,89,VALID,0.759766,
2010-01-23, 02:25:05,VALID,1011.53,VALID,0,VALID,93.202,VALID,0,VALID,23.5576,VALID,86,VALID,0.228516,
2010-01-23, 02:26:05,VALID,1011.51,VALID,0,VALID,93.2172,VALID,0,VALID,23.5363,VALID,61,VALID,0.844141,
2010-01-23, 02:27:05,VALID,1011.53,VALID,0,VALID,93.2172,VALID,0,VALID,23.5576,VALID,87,VALID,0.667188,
2010-01-23, 02:28:05,VALID,1011.5,VALID,0,VALID,93.2325,VALID,0,VALID,23.5186,VALID,75,VALID,1.09414,
2010-01-23, 02:29:05,VALID,1011.48,VALID,0,VALID,93.2325,VALID,0.105969,VALID,23.5381,VALID,66,VALID,0.965234,
2010-01-23, 02:30:05,VALID,1011.43,VALID,0,VALID,93.3621,VALID,0,VALID,23.5381,VALID,105,VALID,0.198437,
2010-01-23, 02:31:05,VALID,1011.41,VALID,0,VALID,93.3773,VALID,0,VALID,23.5381,VALID,50,VALID,0.464844,
2010-01-23, 02:32:05,VALID,1011.38,VALID,0,VALID,93.3697,VALID,0,VALID,23.5186,VALID,24,VALID,0.447656,
2010-01-23, 02:33:05,VALID,1011.34,VALID,0,VALID,93.385,VALID,0,VALID,23.4992,VALID,41,VALID,0.325391,
2010-01-23, 02:34:05,VALID,1011.32,VALID,0,VALID,93.3697,VALID,0,VALID,23.4992,VALID,41,VALID,0,
2010-01-23, 02:35:05,VALID,1011.3,VALID,0,VALID,93.385,VALID,0,VALID,23.4992,VALID,40,VALID,0.00195313,
2010-01-23, 02:36:05,VALID,1011.27,VALID,0,VALID,93.3621,VALID,0,VALID,23.4992,VALID,40,VALID,0,
2010-01-23, 02:37:05,VALID,1011.28,VALID,0,VALID,93.3773,VALID,0,VALID,23.4797,VALID,41,VALID,0,
2010-01-23, 02:38:05,VALID,1011.29,VALID,0,VALID,93.385,VALID,0,VALID,23.4797,VALID,41,VALID,0,
2010-01-23, 02:39:05,VALID,1011.26,VALID,0,VALID,93.3621,VALID,0,VALID,23.4797,VALID,40,VALID,0,
2010-01-23, 02:40:05,VALID,1011.23,VALID,0,VALID,93.385,VALID,0,VALID,23.4602,VALID,41,VALID,0,
2010-01-23, 02:41:05,VALID,1011.26,VALID,0,VALID,93.385,VALID,0,VALID,23.4602,VALID,41,VALID,0,
2010-01-23, 02:42:05,VALID,1011.24,VALID,0,VALID,93.3926,VALID,0,VALID,23.4602,VALID,41,VALID,0,
2010-01-23, 02:43:05,VALID,1011.23,VALID,0,VALID,93.4079,VALID,0,VALID,23.462,VALID,41,VALID,0,
2010-01-23, 02:44:05,VALID,1011.24,VALID,0,VALID,93.3926,VALID,0,VALID,23.4407,VALID,41,VALID,0,
2010-01-23, 02:45:05,VALID,1011.22,VALID,0,VALID,93.385,VALID,0,VALID,23.4407,VALID,41,VALID,0,
2010-01-23, 02:46:05,VALID,1011.23,VALID,0,VALID,93.4002,VALID,0,VALID,23.4407,VALID,41,VALID,0,
2010-01-23, 02:47:05,VALID,1011.23,VALID,0,VALID,93.4002,VALID,0,VALID,23.4407,VALID,41,VALID,0,
2010-01-23, 02:48:05,VALID,1011.21,VALID,0,VALID,93.4002,VALID,0,VALID,23.4407,VALID,41,VALID,0,
2010-01-23, 02:49:05,VALID,1011.21,VALID,0,VALID,93.4002,VALID,0,VALID,23.4212,VALID,41,VALID,0,
2010-01-23, 02:50:05,VALID,1011.2,VALID,0,VALID,93.3926,VALID,0,VALID,23.4407,VALID,41,VALID,0,
2010-01-23, 02:51:05,VALID,1011.21,VALID,0,VALID,93.4155,VALID,0,VALID,23.4602,VALID,41,VALID,0,
2010-01-23, 02:52:05,VALID,1011.2,VALID,0,VALID,93.4155,VALID,0,VALID,23.4407,VALID,41,VALID,0,
2010-01-23, 02:53:05,VALID,1011.18,VALID,0,VALID,93.4231,VALID,0,VALID,23.4602,VALID,40,VALID,0,
2010-01-23, 02:54:05,VALID,1011.19,VALID,0,VALID,93.4079,VALID,0,VALID,23.4602,VALID,40,VALID,0,
2010-01-23, 02:55:05,VALID,1011.21,VALID,0,VALID,93.4002,VALID,0,VALID,23.4602,VALID,40,VALID,0,
2010-01-23, 02:56:05,VALID,1011.2,VALID,0,VALID,93.4155,VALID,0,VALID,23.4389,VALID,40,VALID,0,
2010-01-23, 02:57:05,VALID,1011.22,VALID,0,VALID,93.4155,VALID,0,VALID,23.4602,VALID,40,VALID,0,
2010-01-23, 02:58:05,VALID,1011.23,VALID,0,VALID,93.4155,VALID,0,VALID,23.4602,VALID,40,VALID,0,
2010-01-23, 02:59:05,VALID,1011.25,VALID,0,VALID,93.4307,VALID,0.105969,VALID,23.4389,VALID,40,VALID,0,
2010-01-23, 03:00:05,VALID,1011.26,VALID,0,VALID,93.4307,VALID,0,VALID,23.4389,VALID,40,VALID,0,
2010-01-23, 03:01:05,VALID,1011.25,VALID,0,VALID,93.446,VALID,0,VALID,23.4602,VALID,40,VALID,0,
2010-01-23, 03:02:05,VALID,1011.25,VALID,0,VALID,93.4307,VALID,0.105969,VALID,23.4602,VALID,40,VALID,0,
2010-01-23, 03:03:05,VALID,1011.24,VALID,0,VALID,93.4231,VALID,0,VALID,23.4407,VALID,40,VALID,0,
2010-01-23, 03:04:05,VALID,1011.24,VALID,0,VALID,93.4155,VALID,0.105969,VALID,23.4194,VALID,40,VALID,0,
2010-01-23, 03:05:05,VALID,1011.29,VALID,0,VALID,93.3773,VALID,0,VALID,23.4407,VALID,40,VALID,0,
2010-01-23, 03:06:05,VALID,1011.26,VALID,0,VALID,93.3773,VALID,0,VALID,23.4602,VALID,40,VALID,0,
2010-01-23, 03:07:05,VALID,1011.29,VALID,0,VALID,93.3926,VALID,0,VALID,23.4797,VALID,40,VALID,0,
2010-01-23, 03:08:05,VALID,1011.29,VALID,0,VALID,93.4002,VALID,0,VALID,23.4797,VALID,40,VALID,0,
2010-01-23, 03:09:05,VALID,1011.32,VALID,0,VALID,93.3926,VALID,0,VALID,23.4797,VALID,40,VALID,0,
2010-01-23, 03:10:05,VALID,1011.33,VALID,0,VALID,93.4002,VALID,0,VALID,23.4797,VALID,40,VALID,0,
2010-01-23, 03:11:05,VALID,1011.35,VALID,0,VALID,93.3697,VALID,0,VALID,23.4797,VALID,40,VALID,0,
2010-01-23, 03:12:05,VALID,1011.33,VALID,0,VALID,93.4079,VALID,0,VALID,23.4797,VALID,40,VALID,0,
2010-01-23, 03:13:05,VALID,1011.36,VALID,0,VALID,93.3926,VALID,0,VALID,23.4797,VALID,40,VALID,0,
2010-01-23, 03:14:05,VALID,1011.37,VALID,0,VALID,93.3468,VALID,0,VALID,23.4602,VALID,40,VALID,0,
2010-01-23, 03:15:05,VALID,1011.4,VALID,0,VALID,93.3545,VALID,0,VALID,23.4407,VALID,40,VALID,0,
2010-01-23, 03:16:05,VALID,1011.4,VALID,0,VALID,93.3773,VALID,0,VALID,23.4212,VALID,40,VALID,0,
2010-01-23, 03:17:05,VALID,1011.4,VALID,0,VALID,93.324,VALID,0,VALID,23.4212,VALID,68,VALID,0,
2010-01-23, 03:18:05,VALID,1011.43,VALID,0,VALID,93.3468,VALID,0,VALID,23.3823,VALID,123,VALID,0,
2010-01-23, 03:19:05,VALID,1011.45,VALID,0,VALID,93.3697,VALID,0,VALID,23.361,VALID,126,VALID,0,
2010-01-23, 03:20:05,VALID,1011.45,VALID,0,VALID,93.324,VALID,0,VALID,23.361,VALID,136,VALID,0,
2010-01-23, 03:21:05,VALID,1011.46,VALID,0,VALID,93.324,VALID,0,VALID,23.3628,VALID,137,VALID,0,
2010-01-23, 03:22:05,VALID,1011.43,VALID,0,VALID,93.3163,VALID,0.105969,VALID,23.3823,VALID,137,VALID,0,
2010-01-23, 03:23:05,VALID,1011.39,VALID,0,VALID,93.3163,VALID,0,VALID,23.3628,VALID,137,VALID,0,
2010-01-23, 03:24:05,VALID,1011.41,VALID,0,VALID,93.3163,VALID,0,VALID,23.3628,VALID,137,VALID,0,
2010-01-23, 03:25:05,VALID,1011.37,VALID,0,VALID,93.3011,VALID,0,VALID,23.3823,VALID,137,VALID,0,
2010-01-23, 03:26:05,VALID,1011.37,VALID,0,VALID,93.3011,VALID,0,VALID,23.4017,VALID,137,VALID,0,
2010-01-23, 03:27:05,VALID,1011.34,VALID,0,VALID,93.4231,VALID,0,VALID,23.4212,VALID,170,VALID,0,
2010-01-23, 03:28:05,VALID,1011.34,VALID,0,VALID,93.446,VALID,0,VALID,23.4212,VALID,198,VALID,0,
2010-01-23, 03:29:05,VALID,1011.33,VALID,0,VALID,93.4384,VALID,0,VALID,23.4407,VALID,221,VALID,0,
2010-01-23, 03:30:05,VALID,1011.31,VALID,0,VALID,93.4384,VALID,0,VALID,23.4407,VALID,221,VALID,0,
2010-01-23, 03:31:05,VALID,1011.3,VALID,0,VALID,93.4307,VALID,0,VALID,23.4389,VALID,221,VALID,0,
2010-01-23, 03:32:05,VALID,1011.26,VALID,0,VALID,93.4384,VALID,0,VALID,23.4407,VALID,220,VALID,0,
2010-01-23, 03:33:05,VALID,1011.25,VALID,0,VALID,93.4536,VALID,0,VALID,23.4212,VALID,215,VALID,0,
2010-01-23, 03:34:05,VALID,1011.23,VALID,0,VALID,93.4612,VALID,0,VALID,23.4017,VALID,188,VALID,0,
2010-01-23, 03:35:05,VALID,1011.24,VALID,0,VALID,93.4689,VALID,0,VALID,23.4017,VALID,176,VALID,0,
2010-01-23, 03:36:05,VALID,1011.23,VALID,0,VALID,93.4536,VALID,0,VALID,23.3823,VALID,176,VALID,0,
2010-01-23, 03:37:05,VALID,1011.21,VALID,0,VALID,93.4612,VALID,0,VALID,23.3823,VALID,176,VALID,0,
2010-01-23, 03:38:05,VALID,1011.22,VALID,0,VALID,93.4536,VALID,0,VALID,23.3628,VALID,176,VALID,0,
2010-01-23, 03:39:05,VALID,1011.19,VALID,0,VALID,93.4612,VALID,0,VALID,23.3823,VALID,176,VALID,0,
2010-01-23, 03:40:05,VALID,1011.2,VALID,0,VALID,93.4689,VALID,0,VALID,23.3628,VALID,176,VALID,0,
2010-01-23, 03:41:05,VALID,1011.17,VALID,0,VALID,93.4384,VALID,0,VALID,23.3628,VALID,176,VALID,0,
2010-01-23, 03:42:05,VALID,1011.19,VALID,0,VALID,93.446,VALID,0,VALID,23.361,VALID,176,VALID,0,
2010-01-23, 03:43:05,VALID,1011.19,VALID,0,VALID,93.4536,VALID,0,VALID,23.3823,VALID,176,VALID,0,
2010-01-23, 03:44:05,VALID,1011.19,VALID,0,VALID,93.4536,VALID,0,VALID,23.3823,VALID,176,VALID,0,
2010-01-23, 03:45:05,VALID,1011.19,VALID,0,VALID,93.446,VALID,0,VALID,23.3823,VALID,176,VALID,0,
2010-01-23, 03:46:05,VALID,1011.23,VALID,0,VALID,93.4536,VALID,0,VALID,23.3823,VALID,131,VALID,0,
2010-01-23, 03:47:05,VALID,1011.24,VALID,0,VALID,93.446,VALID,0,VALID,23.3823,VALID,131,VALID,0,
2010-01-23, 03:48:05,VALID,1011.28,VALID,0,VALID,93.446,VALID,0,VALID,23.4017,VALID,131,VALID,0,
2010-01-23, 03:49:05,VALID,1011.25,VALID,0,VALID,93.446,VALID,0,VALID,23.4017,VALID,131,VALID,0,
2010-01-23, 03:50:05,VALID,1011.26,VALID,0,VALID,93.4307,VALID,0,VALID,23.4017,VALID,131,VALID,0,
2010-01-23, 03:51:05,VALID,1011.27,VALID,0,VALID,93.4384,VALID,0,VALID,23.4212,VALID,131,VALID,0,
2010-01-23, 03:52:05,VALID,1011.25,VALID,0,VALID,93.4307,VALID,0,VALID,23.4212,VALID,131,VALID,0,